User: anonymous   Login
Location: Prairie State College
(41.5244°N, 87.6382°W)
Time: 08:44:55
(UTC-05:00)
Language:

MSX - Orbit

View from above orbital plane
View from above orbital plane
View from above satellite
View from above satellite

Ground track
Ground track

The orbit data is extracted from the following two-line orbital elements,

1 23851U 96024A   14285.83638024 0.00000150  00000-0  10580-3 0    00
2 23851  98.7686 326.5754 0007000 173.4907 186.5092 13.97987377    07
Epoch (UTC): 12 October 2014 20:04:23
Eccentricity: 0.0007000
inclination: 98.7686°
perigee height: 895 km
apogee height: 906 km
right ascension of ascending node: 326.5754°
argument of perigee: 173.4907°
revolutions per day: 13.97987377
mean anomaly at epoch: 186.5092°
orbit number at epoch: 0

The dashed part of the orbit path shows where the satellite is in the earth's shadow,  

DLR